Regional Weather Roundup
Issued by NWS Charleston, SC

Current Version | Previous Version | Text Only | Print | Product List | Glossary On
Versions: 1 2 3 4 5 6 7 8 9 10 11 12 13 14 15 16 17 18 19 20 21 22 23 24 25 26 27 28 29 30 31 32 33 34 35 36 37 38 39 40 41 42 43 44 45 46 47 48 49 50
000 ASUS42 KCHS 050426 RWRCHS REGIONAL WEATHER ROUNDUP NATIONAL WEATHER SERVICE CHARLESTON SC 1100 PM EST WED MAR 04 2015 NOTE: "FAIR" INDICATES FEW OR NO CLOUDS BELOW 12,000 FEET WITH NO SIGNIFICANT WEATHER AND/OR OBSTRUCTIONS TO VISIBILITY. NOT ALL STATIONS ARE QUALITY CONTROLLED BY THE NATIONAL WEATHER SERVICE. USE DATA WITH CAUTION...ESPECIALLY DEWPOINT OBSERVATIONS. SCZ027-030-031-034>040-042>050-050500- ...SOUTHEAST SOUTH CAROLINA... CITY SKY/WX TMP DP RH WIND PRES REMARKS N CHARLESTON PTCLDY 67 63 87 SW13 30.03S WATERFRONT PRK N/A 64 N/A N/A SW13G18 N/A MOUNT PLEASANT FAIR 68 64 88 S15G22 30.03S PINOPOLIS NOT AVBL MONCKS CORNER FAIR 68 63 83 S10G16 30.01S SUMMERVILLE FAIR 68 64 88 S7 30.02S BEAUFORT MCAS PTCLDY 63 60 90 S7 30.03S BEAUFORT ARPT FAIR 61 61 100 S8 30.03S HILTON HEAD IS CLEAR 63 61 94 S9 30.05S WALTERBORO CLEAR 64 63 94 S7 30.02S ALLENDALE FAIR 68 63 83 S5 30.00R ...SOUTHERN MIDLANDS AND PEE DEE... CITY SKY/WX TMP DP RH WIND PRES REMARKS GEORGETOWN NOT AVBL KINGSTREE NOT AVBL ORANGEBURG CLEAR 66 60 81 S9 29.98S BARNWELL FAIR 68 59 73 S6 29.99S AIKEN FAIR 70 57 64 S15G23 29.98S MANNING FAIR 64 64 100 S5 29.99F COLUMBIA PTCLDY 67 56 67 S6 29.94S SUMTER PTCLDY 65 61 86 S10 29.94F FLORENCE CLEAR 67 61 81 S16 29.95F MYRTLE BEACH MOCLDY 70 63 78 SW12G22 30.03R N MYRTLE BEACH MOCLDY 62 60 93 SW15 30.01R $$ GAZ063-065-086>088-099>101-113>116-118-119-134>141-150-050500- ...SOUTHEAST GEORGIA... CITY SKY/WX TMP DP RH WIND PRES REMARKS SAVANNAH ARPT CLEAR 63 59 87 S7 30.04R HUNTER AAF CLEAR 62 61 97 S5 30.02S FORT STEWART CLEAR 67 61 80 S7 30.02R STATESBORO CLEAR 68 60 75 SW6 30.02R SYLVANIA CLEAR 66 60 82 SW3 30.02S CLAXTON FAIR 70 63 78 SW8 30.03R ...CSRA...CENTRAL AND FAR SOUTHEAST GEORGIA... CITY SKY/WX TMP DP RH WIND PRES REMARKS THOMSON CLEAR 70 63 79 S7G18 29.99S AUGUSTA-BUSH CLEAR 70 57 63 SW13 29.96S AUGUSTA-DANIEL CLEAR 71 58 63 S15 29.96F SWAINSBORO FAIR 72 54 53 SW8 30.01S VIDALIA CLEAR 70 63 78 SW8 30.03R EASTMAN FAIR 68 66 92 S9 30.03S HAZLEHURST FAIR 70 65 85 SW7 30.02S ALMA CLEAR 68 63 84 SW7 30.05R WAYCROSS CLEAR 70 68 92 SW6 30.05S JESUP FAIR 70 64 83 W3 30.05S BAXLEY MOCLDY 70 64 83 SW7 30.04S BRUNSWICK CLEAR 61 57 88 CALM 30.06S SAINT SIMONS CLEAR 59 57 93 S5 30.06S $$ SCZ027-028-034-036>038-045-046-048>050-GAZ119-141-050500- ...LAKE AND SUPPLEMENTAL COASTAL OBSERVATIONS... STATION/POSITION TIME TEMP WIND PRES WAVE SWELL AIR SEA DIR/SP/G HT/PER HT/PER/DIR (UTC) (F) (DEG/KT/KT) (MB) (FT/S) (FT/S/D) UPR LAKE MARION NOT AVBL WINYAH BAY 0300 67 220/ 14 1015.0 LAKE MURRAY 0400 63 210/ 8/ 10 1013.2S ACE BASIN NERRS NOT AVBL FORT PULASKI 0400 60 52 200/ 8/ 11 1017.8R SAPELO ISLAND 0400 59 170/ 5 1017.0S $$ ANZ835-935-AMZ111-154-330-350-352-354-370-450-454-472-050500- ...C-MAN AND BUOY OBSERVATIONS... STATION/POSITION TIME TEMP WIND PRES WAVE SWELL AIR SEA DIR/SP/G HT/PER HT/PER/DIR (UTC) (F) (DEG/KT/KT) (MB) (FT/S) (FT/S/D) BUOY 41004 0350 72 69 190/ 19/ 23 1016.0F 6/ 6 3/10 BUOY 41008 0350 59 54 190/ 16/ 17 1017.6R 4/ 6 2/140/11 FOLLY BEACH CMAN 0400 54 220/ 10/ 11 1017.4R CAPERS NEARSHORE 0300 53 250/ 6/ 10 N/A FRIPP NEARSHORE 0300 55 220/ 10/ 12 1016.8R STATION/POSITION TIME TEMP WIND PRES WAVE SWELL AIR SEA DIR/SP/G HT/PER HT/PER/DIR (UTC) (F) (DEG/KT/KT) (MB) (FT/S) (FT/S/D) 5E ST. MARYS GA 0321 56 N/A 3/10 2/120/11 FRYING PAN BUOY 0350 69 62 200/ 16/ 19 1016.9F 6/ 6 3/120/ 9 BUOY 41025 NOT AVBL CAPE LOOKOUT NC 0400 61 220/ 12/ 16 1015.9R BUOY 41002 0350 73 74 210/ 19/ 23 1021.4F 6/11 3/130/11 BUOY 41010 0320 74 75 170/ 16/ 17 1021.3F ST AUGUSTINE FL 0400 63 190/ 4/ 5 1019.4R $$

USA.gov is the U.S. government's official web portal to all federal, state and local government web resources and services.